START_TIME,STEP,MOV.,M34,t_acc.,L5,t_acc.,L18,t_acc.,L14,t_acc.
1979-07-26 03:00:24.060 ,1,0,0.,12.0,0.,12.0,0.,12.0,0.,12.0
1979-07-26 03:00:36.060 ,1,0,0.,12.0,0.,12.0,0.,12.0,0.,12.0
1979-07-26 03:00:48.060 ,2,1,0.,12.0,0.,12.0,0.,12.0,0.,12.0
1979-07-26 03:01:00.060 ,2,1,0.,12.0,0.,12.0,0.,12.0,0.,12.0
1979-07-26 03:01:12.060 ,2,0,0.,12.0,0.,12.0,0.,12.0,0.,12.0
1979-07-26 03:01:24.060 ,2,0,0.,12.0,0.,12.0,0.,12.0,0.,12.0
1979-07-26 03:01:36.060 ,3,1,0.,12.0,0.,12.0,0.,12.0,0.,12.0
1979-07-26 03:01:48.060 ,3,1,0.,12.0,0.,12.0,0.,12.0,0.,12.0
1979-07-26 03:02:00.060 ,3,0,0.,12.0,0.,12.0,0.,12.0,0.,12.0
1979-07-26 03:02:12.060 ,3,0,0.,12.0,0.,12.0,0.,12.0,0.,12.0
1979-07-26 03:02:24.060 ,4,1,0.,12.0,0.,12.0,0.,12.0,0.,12.0
1979-07-26 03:02:36.060 ,4,1,0.,12.0,0.,12.0,0.,12.0,0.,12.0
1979-07-26 03:02:48.060 ,4,0,0.,12.0,0.,12.0,0.,12.0,0.,12.0
1979-07-26 03:03:00.060 ,4,0,0.,12.0,0.,12.0,0.,12.0,0.,12.0
1979-07-26 03:03:12.060 ,5,1,0.,12.0,0.,12.0,0.,12.0,0.,12.0
1979-07-26 03:03:24.060 ,5,1,0.,12.0,0.,12.0,0.,12.0,0.,12.0
1979-07-26 03:03:36.060 ,5,0,0.,12.0,0.,12.0,0.,12.0,0.,12.0
1979-07-26 03:03:48.060 ,5,0,0.,12.0,0.,12.0,0.,12.0,0.,12.0
1979-07-26 03:04:00.060 ,6,1,0.,12.0,0.,12.0,0.,12.0,0.,12.0
1979-07-26 03:04:12.060 ,6,1,0.,12.0,0.,12.0,0.,12.0,0.,12.0
1979-07-26 03:04:24.060 ,6,0,0.,12.0,0.,12.0,0.,12.0,0.,12.0
1979-07-26 03:04:36.060 ,6,0,0.,12.0,0.,12.0,0.,12.0,0.,12.0
1979-07-26 03:04:48.060 ,7,1,0.,12.0,0.,12.0,0.,12.0,0.,12.0
1979-07-26 03:05:00.060 ,7,1,0.,12.0,0.,12.0,0.,12.0,0.,12.0
1979-07-26 03:05:12.060 ,7,0,0.,12.0,0.,12.0,0.,12.0,0.,12.0
1979-07-26 03:05:24.060 ,7,0,0.,12.0,0.,12.0,0.,12.0,0.,12.0
1979-07-26 03:05:36.060 ,7,1,0.,12.0,0.,12.0,0.,12.0,0.,12.0
1979-07-26 03:05:48.060 ,7,1,0.,12.0,0.,12.0,0.,12.0,0.,12.0
1979-07-26 03:06:00.060 ,7,0,0.,12.0,0.,12.0,0.,12.0,0.,12.0
1979-07-26 03:06:12.060 ,7,0,0.,12.0,0.,12.0,0.,12.0,0.,12.0
1979-07-26 03:06:24.060 ,6,1,0.,12.0,0.,12.0,0.,12.0,0.,12.0
1979-07-26 03:06:36.060 ,6,1,0.,12.0,0.,12.0,0.,12.0,0.,12.0
1979-07-26 03:06:48.060 ,6,0,0.,12.0,0.,12.0,0.,12.0,0.,12.0
1979-07-26 03:07:00.060 ,6,0,0.,12.0,0.,12.0,0.,12.0,0.,12.0
1979-07-26 03:07:12.060 ,5,1,0.,12.0,0.,12.0,0.,12.0,0.,12.0
1979-07-26 03:07:24.060 ,5,1,0.,12.0,0.,12.0,0.,12.0,0.,12.0
1979-07-26 03:07:36.060 ,5,0,0.,12.0,0.,12.0,0.,12.0,0.,12.0
1979-07-26 03:07:48.060 ,5,0,0.,12.0,0.,12.0,0.,12.0,0.,12.0
1979-07-26 03:08:00.060 ,4,1,0.,12.0,0.,12.0,0.,12.0,0.,12.0
1979-07-26 03:08:12.060 ,4,1,0.,12.0,0.,12.0,0.,12.0,0.,12.0
1979-07-26 03:08:24.060 ,4,0,0.,12.0,0.,12.0,0.,12.0,0.,12.0
1979-07-26 03:08:36.060 ,4,0,0.,12.0,0.,12.0,0.,12.0,0.,12.0
1979-07-26 03:08:48.060 ,3,1,0.,12.0,0.,12.0,0.,12.0,0.,12.0
1979-07-26 03:09:00.060 ,3,1,0.,12.0,0.,12.0,0.,12.0,0.,12.0
1979-07-26 03:09:12.060 ,3,0,0.,12.0,0.,12.0,0.,12.0,0.,12.0
1979-07-26 03:09:24.060 ,3,0,0.,12.0,0.,12.0,0.,12.0,0.,12.0
1979-07-26 03:09:36.060 ,2,1,0.,12.0,0.,12.0,0.,12.0,1.,12.0
1979-07-26 03:09:48.060 ,2,1,0.,12.0,0.,12.0,0.,12.0,0.,12.0
1979-07-26 03:10:00.060 ,2,0,0.,12.0,0.,12.0,0.,12.0,0.,12.0
1979-07-26 03:10:12.060 ,2,0,0.,12.0,0.,12.0,0.,12.0,0.,12.0
1979-07-26 03:10:24.060 ,1,1,0.,12.0,0.,12.0,0.,12.0,0.,12.0
1979-07-26 03:10:36.060 ,1,1,0.,12.0,0.,12.0,0.,12.0,0.,12.0
1979-07-26 03:10:48.060 ,1,0,0.,12.0,0.,12.0,0.,12.0,0.,12.0
1979-07-26 03:11:00.060 ,1,0,0.,12.0,0.,12.0,0.,12.0,0.,12.0
1979-07-26 03:11:12.060 ,0,1,0.,12.0,0.,12.0,0.,12.0,0.,12.0
1979-07-26 03:11:24.060 ,0,1,0.,12.0,0.,12.0,0.,12.0,0.,12.0
1979-07-26 03:11:36.060 ,0,0,0.,12.0,0.,12.0,0.,12.0,0.,12.0
1979-07-26 03:11:48.060 ,0,0,0.,12.0,0.,12.0,0.,12.0,0.,12.0
1979-07-26 03:12:00.060 ,0,1,0.,12.0,0.,12.0,0.,12.0,0.,12.0
1979-07-26 03:12:12.060 ,0,1,0.,12.0,0.,12.0,0.,12.0,0.,12.0
1979-07-26 03:12:24.060 ,0,0,0.,12.0,0.,12.0,0.,12.0,0.,12.0
1979-07-26 03:12:36.060 ,0,0,0.,12.0,0.,12.0,0.,12.0,0.,12.0
1979-07-26 03:12:48.060 ,1,1,0.,12.0,0.,12.0,0.,12.0,0.,12.0
1979-07-26 03:13:00.060 ,1,1,0.,12.0,0.,12.0,0.,12.0,0.,12.0
1979-07-26 03:13:12.060 ,1,0,0.,12.0,0.,12.0,0.,12.0,0.,12.0
1979-07-26 03:13:24.060 ,1,0,0.,12.0,0.,12.0,0.,12.0,0.,12.0
1979-07-26 03:13:36.060 ,2,1,0.,12.0,0.,12.0,0.,12.0,0.,12.0
1979-07-26 03:13:48.060 ,2,1,0.,12.0,0.,12.0,0.,12.0,0.,12.0
1979-07-26 03:14:00.060 ,2,0,0.,12.0,0.,12.0,0.,12.0,0.,12.0
1979-07-26 03:14:12.060 ,2,0,0.,12.0,0.,12.0,0.,12.0,0.,12.0
1979-07-26 03:14:24.060 ,3,1,0.,12.0,0.,12.0,0.,12.0,0.,12.0
1979-07-26 03:14:36.060 ,3,1,0.,12.0,0.,12.0,0.,12.0,0.,12.0
1979-07-26 03:14:48.060 ,3,0,0.,12.0,0.,12.0,0.,12.0,0.,12.0
1979-07-26 03:15:00.060 ,3,0,0.,12.0,0.,12.0,0.,12.0,0.,12.0
1979-07-26 03:15:12.060 ,4,1,0.,12.0,0.,12.0,0.,12.0,0.,12.0
1979-07-26 03:15:24.060 ,4,1,0.,12.0,0.,12.0,0.,12.0,0.,12.0
1979-07-26 03:15:36.060 ,4,0,0.,12.0,0.,12.0,0.,12.0,0.,12.0
1979-07-26 03:15:48.060 ,4,0,0.,12.0,0.,12.0,0.,12.0,0.,12.0
1979-07-26 03:16:00.060 ,5,1,0.,12.0,0.,12.0,0.,12.0,0.,12.0
1979-07-26 03:16:12.060 ,5,1,0.,12.0,0.,12.0,0.,12.0,0.,12.0
1979-07-26 03:16:24.060 ,5,0,0.,12.0,0.,12.0,0.,12.0,0.,12.0
1979-07-26 03:16:36.060 ,5,0,0.,12.0,0.,12.0,0.,12.0,0.,12.0
1979-07-26 03:16:48.060 ,6,1,0.,12.0,0.,12.0,0.,12.0,0.,12.0
1979-07-26 03:17:00.060 ,6,1,0.,12.0,0.,12.0,0.,12.0,0.,12.0
1979-07-26 03:17:12.060 ,6,0,0.,12.0,0.,12.0,0.,12.0,0.,12.0
1979-07-26 03:17:24.060 ,6,0,0.,12.0,0.,12.0,0.,12.0,0.,12.0
1979-07-26 03:17:36.060 ,7,1,0.,12.0,0.,12.0,0.,12.0,0.,12.0
1979-07-26 03:17:48.060 ,7,1,0.,12.0,0.,12.0,0.,12.0,0.,12.0
1979-07-26 03:18:00.060 ,7,0,0.,12.0,0.,12.0,0.,12.0,0.,12.0
1979-07-26 03:18:12.060 ,7,0,0.,12.0,0.,12.0,0.,12.0,0.,12.0
1979-07-26 03:18:24.060 ,7,1,0.,12.0,0.,12.0,0.,12.0,0.,12.0
1979-07-26 03:18:36.060 ,7,1,0.,12.0,0.,12.0,0.,12.0,0.,12.0
1979-07-26 03:18:48.060 ,7,0,0.,12.0,0.,12.0,0.,12.0,0.,12.0
1979-07-26 03:19:00.060 ,7,0,0.,12.0,0.,12.0,0.,12.0,0.,12.0
1979-07-26 03:19:12.060 ,6,1,0.,12.0,0.,12.0,0.,12.0,0.,12.0
1979-07-26 03:19:24.060 ,6,1,0.,12.0,0.,12.0,0.,12.0,0.,12.0
1979-07-26 03:19:36.060 ,6,0,0.,12.0,0.,12.0,0.,12.0,0.,12.0
1979-07-26 03:19:48.060 ,6,0,1.,12.0,0.,12.0,0.,12.0,0.,12.0
1979-07-26 03:20:00.060 ,5,1,0.,12.0,0.,12.0,0.,12.0,0.,12.0
1979-07-26 03:20:12.060 ,5,1,0.,12.0,0.,12.0,0.,12.0,0.,12.0
1979-07-26 03:20:24.060 ,5,0,0.,12.0,0.,12.0,0.,12.0,0.,12.0
1979-07-26 03:20:36.060 ,5,0,0.,12.0,0.,12.0,0.,12.0,0.,12.0
1979-07-26 03:20:48.060 ,4,1,0.,12.0,0.,12.0,0.,12.0,0.,12.0
1979-07-26 03:21:00.060 ,4,1,0.,12.0,0.,12.0,0.,12.0,0.,12.0
1979-07-26 03:21:12.060 ,4,0,0.,12.0,0.,12.0,0.,12.0,0.,12.0
1979-07-26 03:21:24.060 ,4,0,0.,12.0,0.,12.0,0.,12.0,0.,12.0
1979-07-26 03:21:36.060 ,3,1,0.,12.0,0.,12.0,0.,12.0,0.,12.0
1979-07-26 03:21:48.060 ,3,1,0.,12.0,0.,12.0,0.,12.0,0.,12.0
1979-07-26 03:22:00.060 ,3,0,0.,12.0,0.,12.0,0.,12.0,0.,12.0
1979-07-26 03:22:12.060 ,3,0,0.,12.0,0.,12.0,0.,12.0,0.,12.0
1979-07-26 03:22:24.060 ,2,1,0.,12.0,0.,12.0,0.,12.0,0.,12.0
1979-07-26 03:22:36.060 ,2,1,0.,12.0,0.,12.0,0.,12.0,0.,12.0
1979-07-26 03:22:48.060 ,2,0,0.,12.0,0.,12.0,0.,12.0,0.,12.0
1979-07-26 03:23:00.060 ,2,0,0.,12.0,0.,12.0,0.,12.0,0.,12.0
1979-07-26 03:23:12.060 ,1,1,0.,12.0,0.,12.0,0.,12.0,0.,12.0
1979-07-26 03:23:24.060 ,1,1,0.,12.0,0.,12.0,0.,12.0,0.,12.0
1979-07-26 03:23:36.060 ,1,0,0.,12.0,0.,12.0,0.,12.0,0.,12.0
1979-07-26 03:23:48.060 ,1,0,0.,12.0,0.,12.0,0.,12.0,0.,12.0
1979-07-26 03:24:00.060 ,0,1,0.,12.0,0.,12.0,0.,12.0,0.,12.0
1979-07-26 03:24:12.060 ,0,1,0.,12.0,0.,12.0,0.,12.0,0.,12.0
1979-07-26 03:24:24.060 ,0,0,0.,12.0,0.,12.0,0.,12.0,0.,12.0
1979-07-26 03:24:36.060 ,0,0,0.,12.0,0.,12.0,0.,12.0,0.,12.0
1979-07-26 03:24:48.060 ,0,1,0.,12.0,0.,12.0,0.,12.0,0.,12.0
1979-07-26 03:25:00.060 ,0,1,0.,12.0,0.,12.0,0.,12.0,0.,12.0
1979-07-26 03:25:12.060 ,0,0,0.,12.0,0.,12.0,0.,12.0,0.,12.0
1979-07-26 03:25:24.060 ,0,0,0.,12.0,0.,12.0,0.,12.0,0.,12.0
1979-07-26 03:25:36.060 ,1,1,0.,12.0,0.,12.0,0.,12.0,0.,12.0
1979-07-26 03:25:48.060 ,1,1,0.,12.0,0.,12.0,0.,12.0,0.,12.0
1979-07-26 03:26:00.060 ,1,0,0.,12.0,0.,12.0,0.,12.0,0.,12.0
1979-07-26 03:26:12.060 ,1,0,0.,12.0,0.,12.0,0.,12.0,0.,12.0
1979-07-26 03:26:24.060 ,2,1,0.,12.0,0.,12.0,0.,12.0,0.,12.0
1979-07-26 03:26:36.060 ,2,1,0.,12.0,0.,12.0,0.,12.0,0.,12.0
1979-07-26 03:26:48.060 ,2,0,0.,12.0,0.,12.0,0.,12.0,0.,12.0
1979-07-26 03:27:00.060 ,2,0,0.,12.0,0.,12.0,0.,12.0,0.,12.0
1979-07-26 03:27:12.060 ,3,1,0.,12.0,0.,12.0,0.,12.0,0.,12.0
1979-07-26 03:27:24.060 ,3,1,0.,12.0,0.,12.0,0.,12.0,0.,12.0
1979-07-26 03:27:36.060 ,3,0,0.,12.0,0.,12.0,0.,12.0,0.,12.0
1979-07-26 03:27:48.060 ,3,0,0.,12.0,0.,12.0,0.,12.0,0.,12.0
1979-07-26 03:28:00.060 ,4,1,0.,12.0,0.,12.0,0.,12.0,0.,12.0
1979-07-26 03:28:12.060 ,4,1,0.,12.0,0.,12.0,0.,12.0,0.,12.0
1979-07-26 03:28:24.060 ,4,0,0.,12.0,0.,12.0,0.,12.0,0.,12.0
1979-07-26 03:28:36.060 ,4,0,0.,12.0,0.,12.0,0.,12.0,0.,12.0
1979-07-26 03:28:48.060 ,5,1,0.,12.0,0.,12.0,0.,12.0,0.,12.0
1979-07-26 03:29:00.060 ,5,1,0.,12.0,0.,12.0,0.,12.0,0.,12.0
1979-07-26 03:29:12.060 ,5,0,0.,12.0,0.,12.0,0.,12.0,0.,12.0
1979-07-26 03:29:24.060 ,5,0,0.,12.0,0.,12.0,0.,12.0,0.,12.0
1979-07-26 03:29:36.060 ,6,1,0.,12.0,0.,12.0,0.,12.0,0.,12.0
1979-07-26 03:29:48.060 ,6,1,0.,12.0,0.,12.0,0.,12.0,0.,12.0
1979-07-26 03:30:00.060 ,6,0,0.,12.0,0.,12.0,0.,12.0,0.,12.0
1979-07-26 03:30:12.060 ,6,0,0.,12.0,0.,12.0,0.,12.0,0.,12.0
1979-07-26 03:30:24.060 ,7,0,0.,12.0,0.,12.0,0.,12.0,0.,12.0
1979-07-26 03:30:36.060 ,7,0,0.,12.0,0.,12.0,0.,12.0,0.,12.0
1979-07-26 03:30:48.060 ,7,0,0.,12.0,0.,12.0,0.,12.0,0.,12.0
1979-07-26 03:31:00.060 ,7,0,0.,12.0,0.,12.0,0.,12.0,0.,12.0
1979-07-26 03:31:12.060 ,4,1,0.,12.0,0.,12.0,0.,12.0,0.,12.0
1979-07-26 03:31:24.060 ,4,1,0.,12.0,0.,12.0,0.,12.0,0.,12.0
1979-07-26 03:31:36.060 ,0,1,0.,12.0,0.,12.0,0.,12.0,0.,12.0
1979-07-26 03:31:48.060 ,0,1,0.,12.0,0.,12.0,0.,12.0,0.,12.0
1979-07-26 03:32:00.060 ,3,1,0.,12.0,0.,12.0,0.,12.0,0.,12.0
1979-07-26 03:32:12.060 ,3,1,0.,12.0,0.,12.0,0.,12.0,0.,12.0
1979-07-26 03:32:24.060 ,7,1,0.,12.0,0.,12.0,0.,12.0,0.,12.0
1979-07-26 03:32:36.060 ,7,1,0.,12.0,0.,12.0,0.,12.0,0.,12.0
1979-07-26 03:32:48.060 ,4,1,0.,12.0,0.,12.0,0.,12.0,0.,12.0
1979-07-26 03:33:00.060 ,4,1,0.,12.0,0.,12.0,0.,12.0,0.,12.0
1979-07-26 03:33:12.060 ,0,1,0.,12.0,0.,12.0,0.,12.0,0.,12.0
1979-07-26 03:33:24.060 ,0,1,0.,12.0,0.,12.0,0.,12.0,0.,12.0
1979-07-26 03:33:36.060 ,3,1,0.,12.0,0.,12.0,0.,12.0,0.,12.0
1979-07-26 03:33:48.060 ,3,1,0.,12.0,0.,12.0,0.,12.0,0.,12.0
1979-07-26 03:34:00.060 ,7,1,0.,12.0,0.,12.0,0.,12.0,0.,12.0
1979-07-26 03:34:12.060 ,7,1,0.,12.0,0.,12.0,0.,12.0,0.,12.0
1979-07-26 03:34:24.060 ,4,1,0.,12.0,0.,12.0,0.,12.0,0.,12.0
1979-07-26 03:34:36.060 ,4,1,0.,12.0,0.,12.0,0.,12.0,0.,12.0
1979-07-26 03:34:48.060 ,0,1,0.,12.0,0.,12.0,0.,12.0,0.,12.0
1979-07-26 03:35:00.060 ,0,1,0.,12.0,0.,12.0,0.,12.0,0.,12.0
1979-07-26 03:35:12.060 ,3,1,0.,12.0,0.,12.0,0.,12.0,0.,12.0
1979-07-26 03:35:24.060 ,3,1,0.,12.0,0.,12.0,0.,12.0,0.,12.0
1979-07-26 03:35:36.060 ,7,1,0.,12.0,0.,12.0,0.,12.0,0.,12.0
1979-07-26 03:35:48.060 ,7,1,0.,12.0,0.,12.0,0.,12.0,0.,12.0
1979-07-26 03:36:00.060 ,4,1,0.,12.0,0.,12.0,0.,12.0,0.,12.0
1979-07-26 03:36:12.060 ,4,1,0.,12.0,0.,12.0,0.,12.0,0.,12.0
1979-07-26 03:36:24.060 ,0,1,0.,12.0,0.,12.0,0.,12.0,0.,12.0
1979-07-26 03:36:36.060 ,0,1,0.,12.0,0.,12.0,0.,12.0,0.,12.0
1979-07-26 03:36:48.060 ,3,1,0.,12.0,0.,12.0,0.,12.0,0.,12.0
1979-07-26 03:37:00.060 ,3,1,0.,12.0,0.,12.0,0.,12.0,0.,12.0
1979-07-26 03:37:12.060 ,7,1,0.,12.0,0.,12.0,0.,12.0,0.,12.0
1979-07-26 03:37:24.060 ,7,1,0.,12.0,0.,12.0,0.,12.0,0.,12.0
1979-07-26 03:37:36.060 ,4,1,0.,12.0,0.,12.0,0.,12.0,0.,12.0
1979-07-26 03:37:48.060 ,4,1,0.,12.0,0.,12.0,0.,12.0,0.,12.0
1979-07-26 03:38:00.060 ,0,1,0.,12.0,0.,12.0,0.,12.0,0.,12.0
1979-07-26 03:38:12.060 ,0,1,0.,12.0,0.,12.0,0.,12.0,0.,12.0
1979-07-26 03:38:24.060 ,3,1,0.,12.0,0.,12.0,0.,12.0,0.,12.0
1979-07-26 03:38:36.060 ,3,1,0.,12.0,0.,12.0,0.,12.0,0.,12.0
1979-07-26 03:38:48.060 ,7,1,0.,12.0,0.,12.0,0.,12.0,0.,12.0
1979-07-26 03:39:00.060 ,7,1,0.,12.0,0.,12.0,0.,12.0,0.,12.0
1979-07-26 03:39:12.060 ,4,1,0.,12.0,0.,12.0,0.,12.0,0.,12.0
1979-07-26 03:39:24.060 ,4,1,0.,12.0,0.,12.0,0.,12.0,0.,12.0
1979-07-26 03:39:36.060 ,0,1,0.,12.0,0.,12.0,0.,12.0,0.,12.0
1979-07-26 03:39:48.060 ,0,1,0.,12.0,0.,12.0,0.,12.0,0.,12.0
1979-07-26 03:40:00.060 ,3,1,0.,12.0,0.,12.0,0.,12.0,0.,12.0
1979-07-26 03:40:12.060 ,3,1,0.,12.0,0.,12.0,0.,12.0,0.,12.0
1979-07-26 03:40:24.060 ,7,1,0.,12.0,0.,12.0,0.,12.0,0.,12.0
1979-07-26 03:40:36.060 ,7,1,0.,12.0,0.,12.0,0.,12.0,0.,12.0
1979-07-26 03:40:48.060 ,4,1,0.,12.0,0.,12.0,0.,12.0,0.,12.0
1979-07-26 03:41:00.060 ,4,1,0.,12.0,0.,12.0,0.,12.0,0.,12.0
1979-07-26 03:41:12.060 ,0,1,0.,12.0,0.,12.0,0.,12.0,0.,12.0
1979-07-26 03:41:24.060 ,0,1,0.,12.0,0.,12.0,0.,12.0,0.,12.0
1979-07-26 03:41:36.060 ,0,0,0.,12.0,0.,12.0,0.,12.0,0.,12.0
1979-07-26 03:41:48.060 ,0,0,0.,12.0,0.,12.0,0.,12.0,0.,12.0
1979-07-26 03:42:00.060 ,0,0,0.,12.0,0.,12.0,0.,12.0,0.,12.0
1979-07-26 03:42:12.060 ,0,0,0.,12.0,0.,12.0,0.,12.0,0.,12.0
1979-07-26 03:42:24.060 ,5,1,0.,12.0,0.,12.0,0.,12.0,0.,12.0
1979-07-26 03:42:36.060 ,5,1,0.,12.0,0.,12.0,0.,12.0,0.,12.0
1979-07-26 03:42:48.060 ,5,0,0.,12.0,0.,12.0,0.,12.0,0.,12.0
1979-07-26 03:43:00.060 ,5,0,0.,12.0,1.,12.0,0.,12.0,0.,12.0
1979-07-26 03:43:12.060 ,4,1,0.,12.0,0.,12.0,0.,12.0,0.,12.0
1979-07-26 03:43:24.060 ,4,1,0.,12.0,0.,12.0,0.,12.0,0.,12.0
1979-07-26 03:43:36.060 ,4,0,0.,12.0,0.,12.0,0.,12.0,0.,12.0
1979-07-26 03:43:48.060 ,4,0,0.,12.0,0.,12.0,0.,12.0,0.,12.0
1979-07-26 03:44:00.060 ,3,1,0.,12.0,0.,12.0,0.,12.0,0.,12.0
1979-07-26 03:44:12.060 ,3,1,0.,12.0,0.,12.0,0.,12.0,0.,12.0
1979-07-26 03:44:24.060 ,3,0,0.,12.0,0.,12.0,0.,12.0,0.,12.0
1979-07-26 03:44:36.060 ,3,0,0.,12.0,0.,12.0,0.,12.0,0.,12.0
1979-07-26 03:44:48.060 ,2,1,0.,12.0,0.,12.0,0.,12.0,0.,12.0
1979-07-26 03:45:00.060 ,2,1,0.,12.0,0.,12.0,0.,12.0,0.,12.0
1979-07-26 03:45:12.060 ,2,0,0.,12.0,0.,12.0,0.,12.0,0.,12.0
1979-07-26 03:45:24.060 ,2,0,0.,12.0,0.,12.0,0.,12.0,0.,12.0
1979-07-26 03:45:36.060 ,1,1,0.,12.0,0.,12.0,0.,12.0,0.,12.0
1979-07-26 03:45:48.060 ,1,1,0.,12.0,0.,12.0,0.,12.0,0.,12.0
1979-07-26 03:46:00.060 ,1,0,0.,12.0,0.,12.0,0.,12.0,0.,12.0
1979-07-26 03:46:12.060 ,1,0,0.,12.0,0.,12.0,0.,12.0,0.,12.0
1979-07-26 03:46:24.060 ,0,1,0.,12.0,0.,12.0,0.,12.0,0.,12.0
1979-07-26 03:46:36.060 ,0,1,0.,12.0,0.,12.0,0.,12.0,0.,12.0
1979-07-26 03:46:48.060 ,0,0,0.,12.0,0.,12.0,0.,12.0,0.,12.0
1979-07-26 03:47:00.060 ,0,0,0.,12.0,0.,12.0,0.,12.0,0.,12.0
1979-07-26 03:47:12.060 ,0,1,1.,12.0,0.,12.0,0.,12.0,0.,12.0
1979-07-26 03:47:24.060 ,0,1,0.,12.0,0.,12.0,0.,12.0,0.,12.0
1979-07-26 03:47:36.060 ,0,0,1.,12.0,0.,12.0,0.,12.0,0.,12.0
1979-07-26 03:47:48.060 ,0,0,0.,12.0,0.,12.0,0.,12.0,0.,12.0
1979-07-26 03:48:00.060 ,1,1,0.,12.0,0.,12.0,0.,12.0,0.,12.0
1979-07-26 03:48:12.060 ,1,1,0.,12.0,0.,12.0,0.,12.0,0.,12.0
1979-07-26 03:48:24.060 ,1,0,0.,12.0,0.,12.0,0.,12.0,0.,12.0
1979-07-26 03:48:36.060 ,1,0,0.,12.0,0.,12.0,0.,12.0,0.,12.0
1979-07-26 03:48:48.060 ,2,1,0.,12.0,0.,12.0,0.,12.0,0.,12.0
1979-07-26 03:49:00.060 ,2,1,0.,12.0,0.,12.0,0.,12.0,0.,12.0
1979-07-26 03:49:12.060 ,2,0,0.,12.0,0.,12.0,0.,12.0,0.,12.0
1979-07-26 03:49:24.060 ,2,0,0.,12.0,0.,12.0,0.,12.0,0.,12.0
1979-07-26 03:49:36.060 ,3,1,0.,12.0,0.,12.0,0.,12.0,0.,12.0
1979-07-26 03:49:48.060 ,3,1,1.,12.0,0.,12.0,0.,12.0,0.,12.0
1979-07-26 03:50:00.060 ,3,0,0.,12.0,0.,12.0,0.,12.0,0.,12.0
1979-07-26 03:50:12.060 ,3,0,0.,12.0,0.,12.0,0.,12.0,0.,12.0
1979-07-26 03:50:24.060 ,4,1,0.,12.0,0.,12.0,0.,12.0,0.,12.0
1979-07-26 03:50:36.060 ,4,1,0.,12.0,0.,12.0,0.,12.0,0.,12.0
1979-07-26 03:50:48.060 ,4,0,0.,12.0,0.,12.0,0.,12.0,0.,12.0
1979-07-26 03:51:00.060 ,4,0,0.,12.0,0.,12.0,0.,12.0,0.,12.0
1979-07-26 03:51:12.060 ,5,1,0.,12.0,0.,12.0,0.,12.0,0.,12.0
1979-07-26 03:51:24.060 ,5,1,0.,12.0,0.,12.0,0.,12.0,0.,12.0
1979-07-26 03:51:36.060 ,5,0,0.,12.0,0.,12.0,0.,12.0,0.,12.0
1979-07-26 03:51:48.060 ,5,0,0.,12.0,0.,12.0,0.,12.0,0.,12.0
1979-07-26 03:52:00.060 ,6,1,0.,12.0,0.,12.0,0.,12.0,0.,12.0
1979-07-26 03:52:12.060 ,6,1,0.,12.0,0.,12.0,0.,12.0,0.,12.0
1979-07-26 03:52:24.060 ,6,0,0.,12.0,0.,12.0,0.,12.0,0.,12.0
1979-07-26 03:52:36.060 ,6,0,0.,12.0,0.,12.0,0.,12.0,0.,12.0
1979-07-26 03:52:48.060 ,7,1,0.,12.0,0.,12.0,0.,12.0,0.,12.0
1979-07-26 03:53:00.060 ,7,1,0.,12.0,0.,12.0,0.,12.0,0.,12.0
1979-07-26 03:53:12.060 ,7,0,0.,12.0,0.,12.0,0.,12.0,0.,12.0
1979-07-26 03:53:24.060 ,7,0,0.,12.0,0.,12.0,0.,12.0,0.,12.0
1979-07-26 03:53:36.060 ,7,1,0.,12.0,0.,12.0,0.,12.0,0.,12.0
1979-07-26 03:53:48.060 ,7,1,0.,12.0,0.,12.0,0.,12.0,0.,12.0
1979-07-26 03:54:00.060 ,7,0,0.,12.0,0.,12.0,0.,12.0,0.,12.0
1979-07-26 03:54:12.060 ,7,0,0.,12.0,0.,12.0,0.,12.0,0.,12.0
1979-07-26 03:54:24.060 ,6,1,0.,12.0,0.,12.0,0.,12.0,0.,12.0
1979-07-26 03:54:36.060 ,6,1,0.,12.0,0.,12.0,0.,12.0,0.,12.0
1979-07-26 03:54:48.060 ,6,0,0.,12.0,0.,12.0,0.,12.0,0.,12.0
1979-07-26 03:55:00.060 ,6,0,0.,12.0,0.,12.0,0.,12.0,0.,12.0
1979-07-26 03:55:12.060 ,5,1,0.,12.0,0.,12.0,0.,12.0,0.,12.0
1979-07-26 03:55:24.060 ,5,1,0.,12.0,0.,12.0,0.,12.0,0.,12.0
1979-07-26 03:55:36.060 ,5,0,0.,12.0,0.,12.0,0.,12.0,0.,12.0
1979-07-26 03:55:48.060 ,5,0,0.,12.0,0.,12.0,0.,12.0,0.,12.0
1979-07-26 03:56:00.060 ,4,1,0.,12.0,0.,12.0,0.,12.0,0.,12.0
1979-07-26 03:56:12.060 ,4,1,0.,12.0,0.,12.0,0.,12.0,0.,12.0
1979-07-26 03:56:24.060 ,4,0,0.,12.0,0.,12.0,0.,12.0,0.,12.0
1979-07-26 03:56:36.060 ,4,0,0.,12.0,0.,12.0,0.,12.0,0.,12.0
1979-07-26 03:56:48.060 ,3,1,0.,12.0,0.,12.0,0.,12.0,0.,12.0
1979-07-26 03:57:00.060 ,3,1,0.,12.0,0.,12.0,0.,12.0,0.,12.0
1979-07-26 03:57:12.060 ,3,0,0.,12.0,0.,12.0,0.,12.0,0.,12.0
1979-07-26 03:57:24.060 ,3,0,0.,12.0,0.,12.0,0.,12.0,0.,12.0
1979-07-26 03:57:36.060 ,2,1,0.,12.0,0.,12.0,0.,12.0,0.,12.0
1979-07-26 03:57:48.060 ,2,1,2.,12.0,0.,12.0,0.,12.0,0.,12.0
1979-07-26 03:58:00.060 ,2,0,1.,12.0,0.,12.0,0.,12.0,0.,12.0
1979-07-26 03:58:12.060 ,2,0,1.,12.0,0.,12.0,0.,12.0,0.,12.0
1979-07-26 03:58:24.060 ,1,1,0.,12.0,0.,12.0,0.,12.0,0.,12.0
1979-07-26 03:58:36.060 ,1,1,0.,12.0,0.,12.0,0.,12.0,0.,12.0
1979-07-26 03:58:48.060 ,1,0,1.,12.0,0.,12.0,0.,12.0,0.,12.0
1979-07-26 03:59:00.060 ,1,0,0.,12.0,0.,12.0,0.,12.0,0.,12.0
1979-07-26 03:59:12.060 ,0,1,1.,12.0,0.,12.0,0.,12.0,0.,12.0
1979-07-26 03:59:24.060 ,0,1,0.,12.0,0.,12.0,0.,12.0,0.,12.0
1979-07-26 03:59:36.060 ,0,0,0.,12.0,0.,12.0,0.,12.0,0.,12.0
1979-07-26 03:59:48.060 ,0,0,1.,12.0,0.,12.0,0.,12.0,0.,12.0
1979-07-26 04:00:00.060 ,0,1,1.,12.0,0.,12.0,0.,12.0,0.,12.0
1979-07-26 04:00:12.060 ,0,1,0.,12.0,0.,12.0,0.,12.0,0.,12.0
1979-07-26 04:00:24.060 ,0,0,1.,12.0,0.,12.0,0.,12.0,0.,12.0
1979-07-26 04:00:36.060 ,0,0,1.,12.0,0.,12.0,0.,12.0,0.,12.0
1979-07-26 04:00:48.060 ,1,1,0.,12.0,0.,12.0,0.,12.0,0.,12.0
1979-07-26 04:01:00.060 ,1,1,1.,12.0,0.,12.0,0.,12.0,0.,12.0
1979-07-26 04:01:12.060 ,1,0,0.,12.0,0.,12.0,0.,12.0,0.,12.0
1979-07-26 04:01:24.060 ,1,0,1.,12.0,0.,12.0,0.,12.0,0.,12.0
1979-07-26 04:01:36.060 ,2,1,1.,12.0,0.,12.0,0.,12.0,0.,12.0
1979-07-26 04:01:48.060 ,2,1,0.,12.0,0.,12.0,0.,12.0,0.,12.0
1979-07-26 04:02:00.060 ,2,0,0.,12.0,0.,12.0,0.,12.0,0.,12.0
1979-07-26 04:02:12.060 ,2,0,0.,12.0,0.,12.0,0.,12.0,0.,12.0
1979-07-26 04:02:24.060 ,3,1,0.,12.0,0.,12.0,0.,12.0,0.,12.0
1979-07-26 04:02:36.060 ,3,1,0.,12.0,0.,12.0,0.,12.0,0.,12.0
1979-07-26 04:02:48.060 ,3,0,0.,12.0,0.,12.0,0.,12.0,0.,12.0
1979-07-26 04:03:00.060 ,3,0,0.,12.0,0.,12.0,0.,12.0,0.,12.0
1979-07-26 04:03:12.060 ,4,1,0.,12.0,0.,12.0,0.,12.0,0.,12.0
1979-07-26 04:03:24.060 ,4,1,0.,12.0,0.,12.0,0.,12.0,0.,12.0
1979-07-26 04:03:36.060 ,4,0,0.,12.0,0.,12.0,0.,12.0,0.,12.0
1979-07-26 04:03:48.060 ,4,0,0.,12.0,0.,12.0,0.,12.0,0.,12.0
1979-07-26 04:04:00.060 ,5,1,0.,12.0,0.,12.0,0.,12.0,0.,12.0
1979-07-26 04:04:12.060 ,5,1,0.,12.0,0.,12.0,0.,12.0,0.,12.0
1979-07-26 04:04:24.060 ,5,0,0.,12.0,0.,12.0,0.,12.0,0.,12.0
1979-07-26 04:04:36.060 ,5,0,0.,12.0,0.,12.0,0.,12.0,0.,12.0
1979-07-26 04:04:48.060 ,6,1,0.,12.0,0.,12.0,0.,12.0,0.,12.0
1979-07-26 04:05:00.060 ,6,1,0.,12.0,0.,12.0,0.,12.0,0.,12.0
1979-07-26 04:05:12.060 ,6,0,0.,12.0,0.,12.0,0.,12.0,0.,12.0
1979-07-26 04:05:24.060 ,6,0,0.,12.0,0.,12.0,0.,12.0,0.,12.0
1979-07-26 04:05:36.060 ,7,1,0.,12.0,0.,12.0,0.,12.0,0.,12.0
1979-07-26 04:05:48.060 ,7,1,0.,12.0,0.,12.0,0.,12.0,0.,12.0
1979-07-26 04:06:00.060 ,7,0,0.,12.0,0.,12.0,0.,12.0,0.,12.0
1979-07-26 04:06:12.060 ,7,0,0.,12.0,0.,12.0,0.,12.0,0.,12.0
1979-07-26 04:06:24.060 ,7,1,0.,12.0,0.,12.0,0.,12.0,0.,12.0
1979-07-26 04:06:36.060 ,7,1,0.,12.0,0.,12.0,0.,12.0,0.,12.0
1979-07-26 04:06:48.060 ,7,0,0.,12.0,0.,12.0,0.,12.0,0.,12.0
1979-07-26 04:07:00.060 ,7,0,0.,12.0,0.,12.0,0.,12.0,0.,12.0
1979-07-26 04:07:12.060 ,6,1,0.,12.0,0.,12.0,0.,12.0,0.,12.0
1979-07-26 04:07:24.060 ,6,1,0.,12.0,0.,12.0,0.,12.0,0.,12.0
1979-07-26 04:07:36.060 ,6,0,0.,12.0,0.,12.0,0.,12.0,0.,12.0
1979-07-26 04:07:48.060 ,6,0,0.,12.0,0.,12.0,0.,12.0,0.,12.0
1979-07-26 04:08:00.060 ,5,1,0.,12.0,0.,12.0,0.,12.0,0.,12.0
1979-07-26 04:08:12.060 ,5,1,0.,12.0,0.,12.0,0.,12.0,0.,12.0
1979-07-26 04:08:24.060 ,5,0,0.,12.0,0.,12.0,0.,12.0,0.,12.0
1979-07-26 04:08:36.060 ,5,0,0.,12.0,0.,12.0,0.,12.0,0.,12.0
1979-07-26 04:08:48.060 ,4,1,0.,12.0,0.,12.0,0.,12.0,0.,12.0
1979-07-26 04:09:00.060 ,4,1,0.,12.0,0.,12.0,0.,12.0,0.,12.0
1979-07-26 04:09:12.060 ,4,0,0.,12.0,0.,12.0,0.,12.0,0.,12.0
1979-07-26 04:09:24.060 ,4,0,0.,12.0,0.,12.0,0.,12.0,0.,12.0
1979-07-26 04:09:36.060 ,3,1,0.,12.0,0.,12.0,0.,12.0,0.,12.0
1979-07-26 04:09:48.060 ,3,1,0.,12.0,0.,12.0,0.,12.0,0.,12.0
1979-07-26 04:10:00.060 ,3,0,0.,12.0,0.,12.0,0.,12.0,0.,12.0
1979-07-26 04:10:12.060 ,3,0,0.,12.0,0.,12.0,0.,12.0,0.,12.0
1979-07-26 04:10:24.060 ,2,1,0.,12.0,0.,12.0,0.,12.0,0.,12.0
1979-07-26 04:10:36.060 ,2,1,0.,12.0,0.,12.0,0.,12.0,1.,12.0
1979-07-26 04:10:48.060 ,2,0,0.,12.0,0.,12.0,0.,12.0,0.,12.0
1979-07-26 04:11:00.060 ,2,0,0.,12.0,0.,12.0,0.,12.0,0.,12.0
1979-07-26 04:11:12.060 ,1,1,0.,12.0,0.,12.0,1.,12.0,0.,12.0
1979-07-26 04:11:24.060 ,1,1,0.,12.0,0.,12.0,0.,12.0,0.,12.0
1979-07-26 04:11:36.060 ,1,0,0.,12.0,0.,12.0,0.,12.0,0.,12.0
1979-07-26 04:11:48.060 ,1,0,0.,12.0,0.,12.0,0.,12.0,0.,12.0
1979-07-26 04:12:00.060 ,0,1,0.,12.0,0.,12.0,0.,12.0,0.,12.0
1979-07-26 04:12:12.060 ,0,1,0.,12.0,0.,12.0,0.,12.0,0.,12.0
1979-07-26 04:12:24.060 ,0,0,0.,12.0,0.,12.0,0.,12.0,0.,12.0
1979-07-26 04:12:36.060 ,0,0,0.,12.0,0.,12.0,0.,12.0,0.,12.0
1979-07-26 04:12:48.060 ,0,1,0.,12.0,0.,12.0,0.,12.0,0.,12.0
1979-07-26 04:13:00.060 ,0,1,0.,12.0,0.,12.0,0.,12.0,0.,12.0
1979-07-26 04:13:12.060 ,0,0,0.,12.0,0.,12.0,0.,12.0,0.,12.0
1979-07-26 04:13:24.060 ,0,0,1.,12.0,0.,12.0,0.,12.0,0.,12.0
1979-07-26 04:13:36.060 ,1,1,0.,12.0,0.,12.0,0.,12.0,0.,12.0
1979-07-26 04:13:48.060 ,1,1,0.,12.0,0.,12.0,0.,12.0,0.,12.0
1979-07-26 04:14:00.060 ,1,0,0.,12.0,0.,12.0,0.,12.0,0.,12.0
1979-07-26 04:14:12.060 ,1,0,0.,12.0,0.,12.0,0.,12.0,0.,12.0
1979-07-26 04:14:24.060 ,2,1,0.,12.0,0.,12.0,0.,12.0,0.,12.0
1979-07-26 04:14:36.060 ,2,1,0.,12.0,0.,12.0,0.,12.0,0.,12.0
1979-07-26 04:14:48.060 ,2,0,0.,12.0,0.,12.0,0.,12.0,0.,12.0
1979-07-26 04:15:00.060 ,2,0,0.,12.0,0.,12.0,0.,12.0,0.,12.0
1979-07-26 04:15:12.060 ,3,1,0.,12.0,0.,12.0,0.,12.0,0.,12.0
1979-07-26 04:15:24.060 ,3,1,0.,12.0,0.,12.0,0.,12.0,0.,12.0
1979-07-26 04:15:36.060 ,3,0,0.,12.0,0.,12.0,0.,12.0,0.,12.0
1979-07-26 04:15:48.060 ,3,0,0.,12.0,0.,12.0,0.,12.0,0.,12.0
1979-07-26 04:16:00.060 ,4,1,0.,12.0,0.,12.0,0.,12.0,0.,12.0
1979-07-26 04:16:12.060 ,4,1,0.,12.0,0.,12.0,0.,12.0,0.,12.0
1979-07-26 04:16:24.060 ,0,0,0.,12.0,0.,12.0,0.,12.0,0.,12.0
1979-07-26 04:16:36.060 ,0,0,0.,12.0,0.,12.0,0.,12.0,0.,12.0
1979-07-26 04:16:48.060 ,5,1,0.,12.0,0.,12.0,0.,12.0,0.,12.0
1979-07-26 04:17:00.060 ,5,1,0.,12.0,0.,12.0,0.,12.0,0.,12.0
1979-07-26 04:17:12.060 ,5,0,0.,12.0,0.,12.0,0.,12.0,0.,12.0
1979-07-26 04:17:24.060 ,5,0,0.,12.0,0.,12.0,0.,12.0,0.,12.0